Weather History for Glasgow, United Kingdom

Change the Weather History Date:

Friday, June 6, 2014

  Actual Average Record
Temperature  
Mean Temperature 60 °F -  
Max Temperature 69 °F 62 °F 73 °F (2006)
Min Temperature 51 °F 47 °F 41 °F (2001)
Degree Days  
Heating Degree Days 5    
Growing Degree Days 10 (Base 50)    
Moisture  
Dew Point 50 °F    
Average Humidity 72    
Maximum Humidity 94    
Minimum Humidity 40    
Precipitation  
Precipitation 0.00 in - - ()
Sea Level Pressure  
Sea Level Pressure 29.89 in    
Wind  
Wind Speed 7 mph ()    
Max Wind Speed 14 mph    
Max Gust Speed -    
Visibility 6.2 miles    
Events      
Averages and records for this station are not official NWS values.
T = Trace of Precipitation, MM = Missing Value Source: Averaged Metar Reports

Daily Weather History Graph

Daily Weather History Graph

Search for Another Location

Airport:

Trip Planner

Search our weather history database for the weather conditions in past years. The results will help you decide how hot, cold, wet, or windy it might be!

Date:

Astronomy

Jun. 06, 2014 Rise Set
Actual Time 4:36 AM BST 9:57 PM BST
Civil Twilight 3:37 AM BST 10:56 PM BST
Nautical Twilight 1:48 AM BST 12:44 AM BST
Astronomical Twilight Sun does not rise Sun does not rise
Moon 1:49 PM BST (6/6) 1:39 AM BST (6/6)
Length of Visible Light 19h 19m
Length of Day
17h 21m
First Quarter, 56% of the Moon is Illuminated
Jun 6
First Quarter
Jun 13
Full
Jun 19
Last Quarter
Jun 27
New
Jul 5
First Quarter

Hourly Weather History & Observations

Time (BST) Temp. Dew Point Humidity Pressure Visibility Wind Dir Wind Speed Gust Speed Precip Events Conditions
12:20 AM 53.6 °F 51.8 °F 94% 29.83 in 6.2 mi WSW 6.9 mph - N/A   Overcast
12:50 AM 53.6 °F 50.0 °F 88% 29.86 in 6.2 mi West 8.1 mph - N/A   Overcast
1:20 AM 51.8 °F 50.0 °F 94% 29.86 in 6.2 mi WSW 8.1 mph - N/A   Overcast
1:50 AM 51.8 °F 50.0 °F 94% 29.86 in 6.2 mi WSW 10.4 mph - N/A   Overcast
2:20 AM 51.8 °F 50.0 °F 94% 29.86 in 6.2 mi WSW 6.9 mph - N/A   Overcast
2:50 AM 51.8 °F 50.0 °F 94% 29.86 in 6.2 mi WSW 9.2 mph - N/A   Overcast
3:20 AM 51.8 °F 48.2 °F 88% 29.86 in 6.2 mi West 5.8 mph - N/A   Overcast
3:50 AM 51.8 °F 48.2 °F 88% 29.86 in 6.2 mi WSW 5.8 mph - N/A   Overcast
4:20 AM 51.8 °F 48.2 °F 88% 29.86 in 6.2 mi West 6.9 mph - N/A   Overcast
4:50 AM 51.8 °F 48.2 °F 88% 29.89 in 6.2 mi West 6.9 mph - N/A   Overcast
5:20 AM 51.8 °F 48.2 °F 88% 29.89 in 6.2 mi WSW 5.8 mph - N/A   Overcast
5:50 AM 51.8 °F 48.2 °F 88% 29.89 in 6.2 mi WSW 4.6 mph - N/A   Overcast
6:20 AM 51.8 °F 48.2 °F 88% 29.89 in 6.2 mi SW 8.1 mph - N/A   Overcast
6:50 AM 51.8 °F 48.2 °F 88% 29.89 in 6.2 mi WSW 9.2 mph - N/A   Mostly Cloudy
7:20 AM 51.8 °F 48.2 °F 88% 29.89 in 6.2 mi SW 8.1 mph - N/A   Mostly Cloudy
7:50 AM 51.8 °F 48.2 °F 88% 29.89 in 6.2 mi SW 9.2 mph - N/A   Mostly Cloudy
8:20 AM 53.6 °F 48.2 °F 82% 29.92 in 6.2 mi SW 8.1 mph - N/A   Mostly Cloudy
8:50 AM 55.4 °F 48.2 °F 77% 29.92 in 6.2 mi SW 5.8 mph - N/A   Mostly Cloudy
9:20 AM 55.4 °F 48.2 °F 77% 29.92 in 6.2 mi SW 4.6 mph - N/A   Mostly Cloudy
9:50 AM 57.2 °F 48.2 °F 72% 29.92 in 6.2 mi West 4.6 mph - N/A   Scattered Clouds
10:20 AM 59.0 °F 48.2 °F 67% 29.92 in 6.2 mi Variable 3.5 mph - N/A   Scattered Clouds
10:50 AM 59.0 °F 48.2 °F 67% 29.92 in 6.2 mi Variable 3.5 mph - N/A   Scattered Clouds
11:20 AM 60.8 °F 50.0 °F 68% 29.92 in 6.2 mi Variable 3.5 mph - N/A   Scattered Clouds
11:50 AM 60.8 °F 50.0 °F 68% 29.92 in 6.2 mi West 4.6 mph - N/A   Partly Cloudy
12:20 PM 64.4 °F 50.0 °F 59% 29.92 in 6.2 mi Variable 2.3 mph - N/A   Partly Cloudy
12:50 PM 64.4 °F 50.0 °F 59% 29.92 in 6.2 mi Variable 3.5 mph - N/A   Partly Cloudy
1:20 PM 64.4 °F 50.0 °F 59% 29.92 in 6.2 mi Variable 3.5 mph - N/A   Partly Cloudy
1:50 PM 66.2 °F 50.0 °F 56% 29.92 in 6.2 mi Variable 4.6 mph - N/A   Partly Cloudy
2:20 PM 66.2 °F 50.0 °F 56% 29.89 in 6.2 mi SSW 5.8 mph - N/A   Partly Cloudy
2:50 PM 66.2 °F 50.0 °F 56% 29.89 in 6.2 mi SE 6.9 mph - N/A   Partly Cloudy
3:20 PM 68.0 °F 48.2 °F 49% 29.89 in 6.2 mi Variable 3.5 mph - N/A   Partly Cloudy
3:50 PM 68.0 °F 50.0 °F 52% 29.89 in 6.2 mi Variable 2.3 mph - N/A   Partly Cloudy
4:20 PM 68.0 °F 50.0 °F 52% 29.89 in 6.2 mi NE 5.8 mph - N/A   Partly Cloudy
4:50 PM 69.8 °F 50.0 °F 49% 29.89 in 6.2 mi East 5.8 mph - N/A   Partly Cloudy
5:20 PM 69.8 °F 48.2 °F 46% 29.86 in 6.2 mi East 10.4 mph - N/A   Partly Cloudy
5:50 PM 68.0 °F 46.4 °F 46% 29.86 in 6.2 mi SE 9.2 mph - N/A   Partly Cloudy
6:20 PM 69.8 °F 44.6 °F 40% 29.86 in - SE 8.1 mph - N/A   Clear
6:50 PM 69.8 °F 48.2 °F 46% 29.86 in - ESE 6.9 mph - N/A   Clear
7:20 PM 68.0 °F 48.2 °F 49% 29.89 in 6.2 mi SE 8.1 mph - N/A   Partly Cloudy
7:50 PM 68.0 °F 44.6 °F 43% 29.89 in 6.2 mi East 11.5 mph - N/A   Partly Cloudy
8:20 PM 66.2 °F 55.4 °F 68% 29.89 in 6.2 mi ENE 13.8 mph - N/A   Partly Cloudy
8:50 PM 64.4 °F 53.6 °F 68% 29.89 in - ENE 12.7 mph - N/A   Clear
9:20 PM 62.6 °F 53.6 °F 72% 29.89 in - ENE 10.4 mph - N/A   Clear
9:50 PM 62.6 °F 55.4 °F 77% 29.92 in - ENE 10.4 mph - N/A   Clear
10:20 PM 60.8 °F 55.4 °F 82% 29.92 in - ENE 10.4 mph - N/A   Clear
10:50 PM 60.8 °F 55.4 °F 82% 29.92 in - ENE 9.2 mph - N/A   Clear
11:20 PM 59.0 °F 55.4 °F 88% 29.92 in - ENE 10.4 mph - N/A   Clear
11:50 PM 59.0 °F 53.6 °F 82% 29.92 in - ENE 10.4 mph - N/A   Clear